Terminal Aerodrome Forecast
Issued by NWS Corpus Christi, TX

Home | Current Version | Previous Version | Text Only | Print | Product List | Glossary On
Versions: 1 2 3 4 5 6 7 8 9 10 11 12 13 14 15 16 17
197
FTUS44 KCRP 232323
TAFVCT
TAF
KVCT 232323Z 2400/2424 15012KT P6SM FEW040
     FM240200 13008KT P6SM SKC
     FM240800 15005KT P6SM SCT020
      TEMPO 2409/2413 6SM BR BKN018
     FM241500 18014G20KT P6SM SCT025=

USA.gov is the U.S. government's official web portal to all federal, state and local government web resources and services.